AMAZONAS NEXUS

Last updated on Thu Oct 30 2025 00:02:52 GMT+0000 (Coordinated Universal Time)

1 55508U 23017A 25301.74531741 -.00000272 00000+0 00000+0 0 9999 2 55508 0.0451 49.4595 0001481 139.3137 55.9097 1.00270018 4729
UTC large
Height (km)
Speed (km/s)
/
Latitude / Longitude
Inclination (degrees)
Orbital Period (minutes)
Azimuth
Elevation
Range (km)
Doppler Factor

Next 0 passes for location: London (51.5072 / 0.1276)

Sorry there are no passes over London.